Погода в Роусинове

Чехия     49°12′08″N   16°52′42″E
темп.,
°C
ветер,
м/с
пор.,
м/с
влажн.,
%
обл.,
%
осадки,
мм/ч
давл.,
гПа
погр.,
м
7 мая, пт
пт723:00+7ю51371100 0.0 1008801
02:00+7ююз51078100 0.0 1007459
05:00+6ююз31186100 0.1 1006473
08:00+8ююз389095 0.4 1007377
11:00+9з588016 0.6 1008765
14:00+11зсз5666100 1.4 10081135
17:00+10сз697157 1.2 10111238
20:00+6зсз4973100 1.4 1014342
8 мая, сб
сб823:00+5зсз410743 0.0 1018363
02:00+3зсз38820 0.0 1020228
05:000зюз22930 0.0 102124
08:00+6зсз35680 0.0 1022398
11:00+11з354656 0.0 10221940
14:00+13юз453898 0.0 10202423
17:00+13юз554289 0.0 10191564
20:00+8ююз226579 0.0 102016
9 мая, вс
вс923:00+5ююв22685 0.0 102111
02:00+4юв227682 0.0 102126
05:00+4ююв237798 0.0 102137
08:00+8ююв614665 0.0 1021593
11:00+13ю811565 0.0 1020982
14:00+16ююв9115037 0.0 10181174
17:00+16ююв813595 0.0 10171185
20:00+13ююв816635 0.0 1017814
10 мая, пн
пн1023:00+12ююв818610 0.0 1016765
02:00+12ююв919614 0.0 1015741
05:00+11ююв919638 0.0 1014687
08:00+12ююв9176934 0.0 1015806
11:00+16ююв9136424 0.0 10141088
14:00+18ююв91364100 0.0 10141506
17:00+19ююв7126898 0.0 10131243
20:00+17юв716731 0.0 1012769
11 мая, вт
вт1123:00+16юв818691 0.0 1012761
02:00+16ююв918710 0.0 1010826
05:00+15ююв920704 0.0 1010735
08:00+15ю817749 0.0 1011832
11:00+18ююв91467100 0.0 1011897
14:00+21ююв9136230 0.0 10101412
17:00+21ююв915666 0.0 10081338
20:00+18ююв9177222 0.0 1007769